Regional Weather Roundup
Issued by NWS

Home | Current Version | Previous Version | Text Only | Print | Product List | Glossary Off
Versions: 1 2 3 4 5 6 7 8 9 10 11 12 13 14 15 16 17 18 19 20 21 22 23 24 25 26 27 28 29 30 31 32 33 34 35 36 37 38 39 40 41 42 43 44 45 46 47 48 49 50

000
ASUS45 KBOI 020310
RWRID
WEATHER ROUNDUP FOR IDAHO
NATIONAL WEATHER SERVICE BOISE ID
900 PM MDT MON SEP 01 2014

NOTE: "FAIR" INDICATES FEW OR NO CLOUDS BELOW 12000 FEET
WITH NO SIGNIFICANT WEATHER AND/OR OBSTRUCTIONS TO VISIBILITY

IDZ012-014-020400-
SOUTHWEST IDAHO


CITY           SKY/WX    TMP DP  RH WIND       PRES   REMARKS
BOISE          CLEAR     70  35  27 CALM      29.98S
CALDWELL       CLEAR     68  36  30 CALM      29.99S
MOUNTAIN HOME  CLEAR     72  35  25 NW6       30.00R
$$

IDZ016-017-020400-
SOUTHCENTRAL IDAHO


CITY           SKY/WX    TMP DP  RH WIND       PRES   REMARKS
BURLEY         CLEAR     61  43  51 SW3       30.04R
JEROME         CLEAR     63  40  42 SW5       30.04S
TWIN FALLS     CLEAR     61  41  47 W3        30.05R
$$

IDZ019>023-020400-
SOUTHEAST IDAHO


CITY           SKY/WX    TMP DP  RH WIND       PRES   REMARKS
IDAHO FALLS    CLEAR     65  40  39 S9        30.07R
POCATELLO      CLEAR     57  37  47 S8        30.07R
REXBURG        CLEAR     59  41  51 S8        30.07R
$$

IDZ006-010-011-018-031-032-020400-
CENTRAL IDAHO MOUNTAINS


CITY           SKY/WX    TMP DP  RH WIND       PRES   REMARKS
MCCALL         CLEAR     60  33  36 CALM      30.07R
HAILEY         CLEAR     63  36  36 S6        30.08R
STANLEY          N/A     49  33  54 CALM      30.14R
SALMON         CLEAR     59  43  55 S8        29.97R
CHALLIS        CLEAR     68  29  23 W12       30.01R
$$

IDZ002-004-006-007-026-020400-
NORTHERN IDAHO


CITY           SKY/WX    TMP DP  RH WIND       PRES   REMARKS
LEWISTON       CLEAR     73  41  31 NW7       29.93S
LOWELL           N/A     61  51  70 N3        29.97R
COEUR D`ALENE  CLEAR     61  37  41 S8        29.96R
MULLAN PASS    CLEAR     48  35  60 W6        30.09S
$$


USA.gov is the U.S. government's official web portal to all federal, state and local government web resources and services.